Location: Guayaquil
(2.1667°S, 79.9000°W)
Time: 10:32:02
(UTC-05:00)

Envisat - Visible Passes

Search period start: 26 April 2018 00:00
Search period end: 06 May 2018 00:00
Orbit: 764 x 766 km, 98.2° (Epoch: 26 April)

Date Brightness Start Highest point End Pass type
(mag) Time Alt. Az. Time Alt. Az. Time Alt. Az.
26 Apr 4.6 19:15:07 16° ENE 19:15:07 16° ENE 19:17:27 10° NE visible
26 Apr 5.2 20:55:19 22° WNW 20:55:19 22° WNW 20:57:36 10° NW visible
27 Apr 3.7 20:18:07 47° NNW 20:18:07 47° NNW 20:21:40 10° NNW visible
28 Apr 3.9 19:40:55 30° NE 19:40:55 30° NE 19:44:28 10° NNE visible
28 Apr 6.0 21:21:07 11° WNW 21:21:07 11° WNW 21:21:20 10° WNW visible
29 Apr 4.9 19:03:43 11° ENE 19:03:43 11° ENE 19:04:52 10° ENE visible
29 Apr 4.7 20:43:56 30° WNW 20:43:56 30° WNW 20:46:50 10° NNW visible
30 Apr 3.4 20:06:44 50° NNE 20:06:44 50° NNE 20:10:31 10° N visible
01 May 4.2 19:29:32 24° ENE 19:29:32 24° ENE 19:32:54 10° NNE visible
01 May 5.6 21:09:44 15° WNW 21:09:44 15° WNW 21:11:10 10° WNW visible
02 May 4.1 20:32:33 39° NW 20:32:33 39° NW 20:35:56 10° NNW visible
03 May 3.4 19:55:20 44° NE 19:55:20 44° NE 19:59:15 10° N visible
04 May 4.5 19:18:08 18° ENE 19:18:08 18° ENE 19:21:05 10° NE visible
04 May 5.2 20:58:21 21° WNW 20:58:21 21° WNW 21:00:40 10° NW visible
05 May 3.6 20:21:09 51° NNW 20:21:09 51° NNW 20:24:55 10° NNW visible
